Retour au catalogue

STARLINK-33833

ActifCommunicationsVLEO
NORAD 63498·PAYLOAD·🇺🇸 United States

Lancé Apr 7, 2025 depuis Vandenberg Space Force Base

Loading…

Prochains Passages (prochaines 24 heures)

TLE

FraisSource: CelesTrak SupGP

Époque: Sep 15, 2026, 03:16 UTC

1 63498C 25071F   26258.13659722  .00059739  00000+0  19203-2 0  2580
2 63498  53.1600 338.9935 0001156  91.1159  92.7683 15.31684147    12

Suivez STARLINK-33833 en temps réel avec AllMySat

Download on the App Store